Vorticity
nan nan nan nan nan nan nan nan nan nan nan nan nan nan nan nan nan nan nan nan nan nan
nan 10 9 11 8 8 10 9 12 9 11 11 9 6 8 9 8 11 12 11 9 nan
nan 12 12 12 10 8 11 11 10 12 9 11 10 11 8 9 12 8 9 13 10 nan
nan 11 12 11 10 11 8 11 12 12 11 10 10 8 10 11 11 11 5 7 11 nan
nan 11 10 11 11 12 10 8 9 10 13 10 8 10 9 8 9 11 11 6 7 nan
nan 18 17 13 12 11 10 10 10 10 9 11 9 9 10 10 10 8 12 14 10 nan
nan 11 11 15 17 13 11 10 10 9 8 9 10 9 8 9 9 9 11 14 15 nan
nan 14 14 10 14 17 13 13 14 12 12 10 8 8 8 9 10 9 9 10 13 nan
nan 17 21 19 13 14 15 15 15 16 16 16 16 16 11 4 7 9 9 11 12 nan
nan 14 19 21 18 14 14 12 10 11 12 13 7 12 19 16 13 13 14 13 16 nan
nan 13 13 13 11 11 11 10 10 9 10 10 5 19 35 22 10 14 15 16 16 nan
nan 10 11 10 11 11 10 9 9 8 8 10 5 17 39 31 14 9 7 8 11 nan
nan 10 9 9 9 10 9 9 8 8 5 8 7 7 24 26 17 8 6 7 4 nan
nan nan nan nan nan nan nan nan nan nan nan nan nan nan nan nan nan nan nan nan nan nan
CAPE
0 0 0 0 0 0 3 3 13 33 0 15 0 0 0 61 130 169 169 86 69 4
0 0 0 0 0 7 26 21 23 38 31 19 46 0 0 50 51 130 130 151 99 42
0 0 0 0 4 31 50 119 134 101 64 43 48 41 42 59 106 126 106 111 98 72
0 0 0 14 79 108 155 226 182 155 121 92 79 21 11 39 97 138 112 82 100 18
0 0 0 11 92 101 180 311 279 200 144 145 99 31 21 22 25 88 129 45 23 13
1 0 0 0 23 67 90 125 208 133 90 107 100 60 29 16 0 17 57 71 0 0
4 2 0 3 11 73 89 112 142 160 148 145 83 47 36 22 13 2 0 71 38 0
5 2 1 0 22 34 78 133 169 170 143 102 86 51 23 17 15 1 0 1 54 31
3 1 1 0 0 20 0 1 0 0 0 0 0 44 25 23 23 2 0 11 13 23
3 2 2 0 0 1 1 0 1 1 1 1 0 1 0 0 0 15 18 2 1 5
3 2 3 3 3 3 2 3 3 3 3 2 2 2 0 0 0 1 1 1 0 0
0 0 0 1 3 5 4 3 3 3 3 3 3 4 0 0 0 1 1 1 1 1
0 0 0 0 1 3 3 2 1 0 2 3 1 6 4 0 0 1 1 2 1 4
0 0 0 0 0 0 0 0 0 0 0 0 1 2 3 0 0 0 0 1 2 0